Location: The Saddle
(36.8333°N, 80.3417°W)
Time: 10:21:45
(UTC-05:00)

S-56A Canister/Altair - Pass Details

Date: 15 December 2023
Orbit: 640 x 2488 km, 38.9° (Epoch: 25 February)

Event Time Altitude Azimuth Distance (km) Brightness Sun altitude
Rises 15:06:22 0° 273° (W) 2,945 11.1 17.8°
Reaches altitude 10° 15:09:37 10° 248° (WSW) 2,026 11.0 17.4°
Maximum altitude 15:12:02 14° 215° (SW) 1,799 12.2 17.0°
Drops below altitude 10° 15:14:36 10° 182° (S) 2,162 10.8 16.7°
Sets 15:18:17 0° 158° (SSE) 3,292 11.1 16.2°
